When you browse on this site, cookies collect data to enhance your experience and personalize the content and advertising you see.
Visit our Privacy Policy to learn more. By continuing to use the site, you agree to this use of cookies and data.
  • en France
  • Liste des pays
  • À 7 jours
  • Température de l'eau
  • Carte satellitaire
  • Carte météo
  • Widgets météo
  • user-avatar
    Se connecter

    Météo par heure à Okoyo

    Ce jour, 20 Novembre, Mardi

    Heure Température Précipitation Vent Pression Humidité
    00:00 +26°C° 0 mm 1 m/s 723 mmHg 74%
    01:00 +25°C° 0 mm 1 m/s 722 mmHg 79%
    02:00 +25°C° 0 mm 1 m/s 722 mmHg 80%
    03:00 +25°C° 0 mm 1 m/s 722 mmHg 81%
    04:00 +25°C° 0 mm 1 m/s 722 mmHg 83%
    05:00 +25°C° 0 mm 1 m/s 723 mmHg 81%
    06:00 +26°C° 0 mm 1 m/s 723 mmHg 80%
    07:00 +27°C° 0 mm 1 m/s 724 mmHg 78%
    08:00 +29°C° 0 mm 1 m/s 724 mmHg 69%
    09:00 +32°C° 0 mm 1 m/s 724 mmHg 60%
    10:00 +34°C° 0 mm 1 m/s 724 mmHg 51%
    11:00 +35°C° 0 mm 1 m/s 723 mmHg 48%
    12:00 +36°C° 0 mm 1 m/s 723 mmHg 44%
    13:00 +36°C° 0 mm 2 m/s 722 mmHg 39%
    14:00 +35°C° 0 mm 1 m/s 721 mmHg 43%
    15:00 +35°C° 0 mm 1 m/s 721 mmHg 46%
    16:00 +34°C° 0 mm 1 m/s 721 mmHg 50%
    17:00 +33°C° 0 mm 1 m/s 721 mmHg 53%
    18:00 +32°C° 0 mm 1 m/s 721 mmHg 56%
    19:00 +31°C° 0 mm 1 m/s 722 mmHg 59%
    20:00 +30°C° 0.1 mm 1 m/s 722 mmHg 62%
    21:00 +29°C° 0.1 mm 2 m/s 723 mmHg 66%
    22:00 +29°C° 0.1 mm 2 m/s 723 mmHg 70%
    23:00 +28°C° 0.2 mm 2 m/s 723 mmHg 73%

    Demain, 21 Novembre, Mercredi

    Heure Température Précipitation Vent Pression Humidité
    00:00 +28°C° 0.2 mm 2 m/s 723 mmHg 76%
    01:00 +27°C° 0.2 mm 3 m/s 723 mmHg 79%
    02:00 +27°C° 0.8 mm 3 m/s 723 mmHg 81%
    03:00 +26°C° 0.8 mm 3 m/s 722 mmHg 83%
    04:00 +26°C° 0.8 mm 3 m/s 722 mmHg 85%
    05:00 +26°C° 0.3 mm 3 m/s 723 mmHg 86%
    06:00 +26°C° 0.3 mm 3 m/s 723 mmHg 86%
    07:00 +26°C° 0.3 mm 3 m/s 724 mmHg 87%
    08:00 +27°C° 1.3 mm 3 m/s 724 mmHg 82%
    09:00 +28°C° 1.3 mm 3 m/s 724 mmHg 78%
    10:00 +30°C° 1.3 mm 3 m/s 724 mmHg 74%
    11:00 +30°C° 0.8 mm 2 m/s 724 mmHg 70%
    12:00 +31°C° 0.8 mm 2 m/s 723 mmHg 66%
    13:00 +32°C° 0.8 mm 2 m/s 723 mmHg 62%
    14:00 +32°C° 0.1 mm 2 m/s 722 mmHg 63%
    15:00 +31°C° 0.1 mm 2 m/s 722 mmHg 64%
    16:00 +31°C° 0.1 mm 2 m/s 721 mmHg 65%
    17:00 +30°C° 0 mm 2 m/s 722 mmHg 70%
    18:00 +28°C° 0 mm 2 m/s 722 mmHg 76%
    19:00 +27°C° 0 mm 1 m/s 723 mmHg 82%
    20:00 +27°C° 0.3 mm 1 m/s 723 mmHg 84%
    21:00 +26°C° 0.3 mm 2 m/s 724 mmHg 85%
    22:00 +26°C° 0.3 mm 2 m/s 724 mmHg 86%
    23:00 +26°C° 0 mm 2 m/s 724 mmHg 87%

    Après-demain, 22 Novembre, Jeudi

    Heure Température Précipitation Vent Pression Humidité
    00:00 +25°C° 0 mm 2 m/s 723 mmHg 87%
    01:00 +25°C° 0 mm 2 m/s 723 mmHg 87%
    02:00 +25°C° 0 mm 2 m/s 723 mmHg 88%
    03:00 +25°C° 0 mm 2 m/s 722 mmHg 88%
    04:00 +25°C° 0 mm 2 m/s 722 mmHg 89%
    05:00 +25°C° 0 mm 2 m/s 723 mmHg 87%
    06:00 +25°C° 0 mm 2 m/s 723 mmHg 86%
    07:00 +26°C° 0 mm 2 m/s 724 mmHg 85%
    08:00 +28°C° 0 mm 3 m/s 724 mmHg 77%
    09:00 +30°C° 0 mm 3 m/s 724 mmHg 70%
    10:00 +31°C° 0 mm 3 m/s 725 mmHg 62%
    11:00 +33°C° 0.9 mm 3 m/s 724 mmHg 63%
    12:00 +33°C° 0.9 mm 3 m/s 723 mmHg 63%
    13:00 +32°C° 0.9 mm 2 m/s 722 mmHg 64%
    14:00 +31°C° 0.7 mm 2 m/s 722 mmHg 65%
    15:00 +31°C° 0.7 mm 2 m/s 721 mmHg 66%
    16:00 +31°C° 0.7 mm 2 m/s 721 mmHg 67%
    17:00 +29°C° 0.6 mm 2 m/s 722 mmHg 73%
    18:00 +28°C° 0.6 mm 2 m/s 722 mmHg 80%
    19:00 +26°C° 0.6 mm 1 m/s 723 mmHg 87%
    20:00 +26°C° 0 mm 1 m/s 723 mmHg 88%
    21:00 +26°C° 0 mm 1 m/s 724 mmHg 89%
    22:00 +25°C° 0 mm 2 m/s 724 mmHg 90%
    23:00 +25°C° 0.1 mm 1 m/s 724 mmHg 91%

    23 Novembre, Vendredi

    Heure Température Précipitation Vent Pression Humidité
    00:00 +25°C° 0.1 mm 1 m/s 723 mmHg 91%
    01:00 +24°C° 0.1 mm 1 m/s 723 mmHg 92%
    02:00 +24°C° 0.2 mm 1 m/s 723 mmHg 93%
    03:00 +24°C° 0.2 mm 1 m/s 723 mmHg 93%
    04:00 +24°C° 0.2 mm 1 m/s 723 mmHg 93%
    05:00 +24°C° 0.1 mm 1 m/s 723 mmHg 92%
    06:00 +25°C° 0.1 mm 1 m/s 724 mmHg 91%
    07:00 +25°C° 0.1 mm 1 m/s 724 mmHg 89%
    08:00 +27°C° 0.2 mm 1 m/s 725 mmHg 80%
    09:00 +29°C° 0.2 mm 2 m/s 725 mmHg 71%
    10:00 +31°C° 0.2 mm 2 m/s 725 mmHg 61%
    11:00 +33°C° 0 mm 1 m/s 724 mmHg 56%
    12:00 +34°C° 0 mm 1 m/s 723 mmHg 50%
    13:00 +36°C° 0 mm 1 m/s 722 mmHg 45%
    14:00 +35°C° 0 mm 1 m/s 722 mmHg 48%
    15:00 +34°C° 0 mm 1 m/s 721 mmHg 52%
    16:00 +31°C° 0 mm 0 m/s 721 mmHg 55%
    17:00 +31°C° 0.1 mm 1 m/s 721 mmHg 59%
    18:00 +30°C° 0.1 mm 1 m/s 722 mmHg 63%
    19:00 +29°C° 0.1 mm 1 m/s 722 mmHg 67%
    20:00 +28°C° 0.6 mm 1 m/s 722 mmHg 74%
    21:00 +27°C° 0.6 mm 1 m/s 723 mmHg 80%
    22:00 +26°C° 0.6 mm 1 m/s 723 mmHg 86%
    23:00 +25°C° 0.6 mm 1 m/s 723 mmHg 87%

    24 Novembre, Samedi

    Heure Température Précipitation Vent Pression Humidité
    00:00 +25°C° 0.6 mm 1 m/s 723 mmHg 88%
    01:00 +25°C° 0.6 mm 1 m/s 722 mmHg 89%
    02:00 +25°C° 0 mm 1 m/s 722 mmHg 89%
    03:00 +25°C° 0 mm 1 m/s 722 mmHg 89%
    04:00 +25°C° 0 mm 1 m/s 722 mmHg 89%
    05:00 +25°C° 0 mm 1 m/s 722 mmHg 88%
    06:00 +26°C° 0 mm 1 m/s 723 mmHg 87%
    07:00 +26°C° 0 mm 1 m/s 723 mmHg 85%
    08:00 +28°C° 0.2 mm 1 m/s 724 mmHg 77%
    09:00 +30°C° 0.2 mm 1 m/s 724 mmHg 68%
    10:00 +32°C° 0.2 mm 1 m/s 724 mmHg 59%
    11:00 +33°C° 0.5 mm 1 m/s 723 mmHg 56%
    12:00 +34°C° 0.5 mm 1 m/s 723 mmHg 54%
    13:00 +35°C° 0.5 mm 1 m/s 722 mmHg 51%
    14:00 +34°C° 0.5 mm 1 m/s 721 mmHg 55%
    15:00 +33°C° 0.5 mm 1 m/s 721 mmHg 59%
    16:00 +31°C° 0.5 mm 1 m/s 720 mmHg 63%
    17:00 +30°C° 0.1 mm 1 m/s 721 mmHg 68%
    18:00 +29°C° 0.1 mm 1 m/s 722 mmHg 73%
    19:00 +28°C° 0.1 mm 1 m/s 722 mmHg 78%
    20:00 +27°C° 0.3 mm 2 m/s 723 mmHg 80%
    21:00 +27°C° 0.3 mm 2 m/s 723 mmHg 81%
    22:00 +26°C° 0.3 mm 2 m/s 723 mmHg 83%
    23:00 +26°C° 0.7 mm 2 m/s 723 mmHg 86%

    25 Novembre, Dimanche

    Heure Température Précipitation Vent Pression Humidité
    00:00 +25°C° 0.7 mm 2 m/s 723 mmHg 89%
    01:00 +25°C° 0.7 mm 2 m/s 722 mmHg 92%
    02:00 +25°C° 0.1 mm 2 m/s 722 mmHg 92%
    03:00 +24°C° 0.1 mm 2 m/s 722 mmHg 93%
    04:00 +24°C° 0.1 mm 2 m/s 722 mmHg 93%
    05:00 +25°C° 0 mm 2 m/s 722 mmHg 92%
    06:00 +25°C° 0 mm 2 m/s 723 mmHg 90%
    07:00 +26°C° 0 mm 2 m/s 723 mmHg 88%
    08:00 +27°C° 0.5 mm 2 m/s 724 mmHg 82%
    09:00 +29°C° 0.5 mm 2 m/s 724 mmHg 75%
    10:00 +31°C° 0.5 mm 2 m/s 724 mmHg 69%
    11:00 +31°C° 1.1 mm 2 m/s 723 mmHg 67%
    12:00 +32°C° 1.1 mm 1 m/s 722 mmHg 65%
    13:00 +33°C° 1.1 mm 1 m/s 722 mmHg 63%
    14:00 +32°C° 1.5 mm 1 m/s 721 mmHg 63%
    15:00 +30°C° 1.5 mm 0 m/s 720 mmHg 63%
    16:00 +30°C° 1.5 mm 0 m/s 720 mmHg 63%
    17:00 +30°C° 0.6 mm 1 m/s 721 mmHg 70%
    18:00 +28°C° 0.6 mm 1 m/s 721 mmHg 78%
    19:00 +27°C° 0.6 mm 1 m/s 722 mmHg 85%
    20:00 +27°C° 0.3 mm 1 m/s 722 mmHg 86%
    21:00 +26°C° 0.3 mm 2 m/s 723 mmHg 88%
    22:00 +26°C° 0.3 mm 2 m/s 723 mmHg 89%
    23:00 +26°C° 0 mm 2 m/s 722 mmHg 89%
    Voir plus